SQ5DCP-1 Weather Reports


Display with metric or nautical units.
time (UTC)temp
F
wind
direction
speed
MPH
gust
MPH
rain 1hr
in
rain 24hr
in
rain mn
in
humidity
%
barometer
mb
20260904174022 72 221 4.0 7.0 0.00 0.00 0.00 65 1008.2
20260904173520 72 212 3.0 8.0 0.00 0.00 0.00 64 1008.3
20260904173018 72 245 4.0 10.0 0.00 0.00 0.00 64 1008.3
20260904172516 72 227 3.0 7.0 0.00 0.00 0.00 64 1008.4
20260904172035 72 234 3.0 8.0 0.00 0.00 0.00 64 1008.3
20260904171532 72 243 3.0 8.0 0.00 0.00 0.00 64 1008.5
20260904171029 72 243 3.0 9.0 0.00 0.00 0.00 64 1008.5
20260904170528 72 243 3.0 9.0 0.00 0.00 0.00 64 1008.5
20260904170025 72 237 4.0 13.0 0.00 0.00 0.00 63 1008.4
20260904165523 72 230 4.0 7.0 0.00 0.00 0.00 63 1008.4
20260904165022 73 264 4.0 8.0 0.00 0.00 0.00 63 1008.4
20260904164520 73 237 5.0 9.0 0.00 0.00 0.00 63 1008.3
20260904164017 73 227 5.0 14.0 0.00 0.00 0.00 63 1008.4
20260904163535 73 239 4.0 10.0 0.00 0.00 0.00 63 1008.6
20260904163032 73 237 5.0 13.0 0.00 0.00 0.00 62 1008.6
20260904162530 73 240 5.0 11.0 0.00 0.00 0.00 62 1008.5
20260904162028 73 230 5.0 15.0 0.00 0.00 0.00 62 1008.5
20260904161526 73 256 6.0 13.0 0.00 0.00 0.00 62 1008.7
20260904161024 73 243 5.0 14.0 0.00 0.00 0.00 62 1008.8
20260904160522 73 227 5.0 10.0 0.00 0.00 0.00 62 1008.8
20260904160020 73 222 5.0 10.0 0.00 0.00 0.00 62 1009.0
20260904155518 73 241 4.0 10.0 0.00 0.00 0.00 62 1009.0
20260904155016 73 232 4.0 13.0 0.00 0.00 0.00 62 1009.1
20260904154535 73 235 4.0 11.0 0.00 0.00 0.00 61 1009.1
20260904154033 73 233 4.0 8.0 0.00 0.00 0.00 61 1009.3
20260904153531 73 241 5.0 9.0 0.00 0.00 0.00 61 1009.3
20260904153029 73 257 5.0 11.0 0.00 0.00 0.00 61 1009.5
20260904152527 73 249 5.0 13.0 0.00 0.00 0.00 61 1009.6
20260904152025 73 242 3.0 7.0 0.00 0.00 0.00 61 1009.6
20260904151523 73 255 4.0 13.0 0.00 0.00 0.00 61 1009.7
20260904151021 73 246 6.0 10.0 0.00 0.00 0.00 61 1009.8
20260904150519 73 225 6.0 15.0 0.00 0.00 0.00 61 1009.8
20260904150017 73 253 5.0 13.0 0.00 0.00 0.00 61 1009.9
20260904145535 73 236 6.0 11.0 0.00 0.00 0.00 60 1010.0
20260904145033 73 242 6.0 13.0 0.00 0.00 0.00 60 1010.1
20260904144530 73 241 5.0 14.0 0.00 0.00 0.00 59 1010.1
20260904144028 73 263 6.0 14.0 0.00 0.00 0.00 59 1010.1
20260904143526 73 282 6.0 15.0 0.00 0.00 0.00 59 1010.2
20260904143024 73 268 5.0 11.0 0.00 0.00 0.00 59 1010.3
20260904142522 73 275 7.0 16.0 0.00 0.00 0.00 59 1010.4
20260904142020 73 266 6.0 11.0 0.00 0.00 0.00 59 1010.6
20260904141518 73 269 8.0 16.0 0.00 0.00 0.00 59 1010.7
20260904141048 73 287 7.0 17.0 0.00 0.00 0.00 58 1010.7
20260904141016 73 287 7.0 17.0 0.00 0.00 0.00 58 1010.7
20260904140535 73 281 8.0 17.0 0.00 0.00 0.00 58 1010.7
20260904140033 73 269 8.0 16.0 0.00 0.00 0.00 58 1010.8
20260904135531 73 278 7.0 16.0 0.00 0.00 0.00 58 1010.9
20260904135029 73 281 10.0 21.0 0.00 0.00 0.00 58 1011.0
20260904134527 73 252 6.0 15.0 0.00 0.00 0.00 59 1011.0
20260904134025 73 246 5.0 15.0 0.00 0.00 0.00 60 1011.0
20260904133523 73 259 5.0 11.0 0.00 0.00 0.00 60 1010.8
20260904133022 73 273 6.0 13.0 0.00 0.00 0.00 60 1011.1
20260904132520 73 284 7.0 14.0 0.00 0.00 0.00 60 1011.3
20260904132017 73 256 8.0 15.0 0.00 0.00 0.00 60 1011.3
20260904131516 73 270 6.0 15.0 0.00 0.00 0.00 60 1011.3
20260904131034 73 250 6.0 14.0 0.00 0.00 0.00 60 1011.5
20260904130532 73 285 7.0 13.0 0.00 0.00 0.00 60 1011.8
20260904130030 73 265 7.0 16.0 0.00 0.00 0.00 60 1011.7
20260904125528 73 261 5.0 14.0 0.00 0.00 0.00 59 1011.7
20260904125027 73 274 7.0 15.0 0.00 0.00 0.00 59 1011.7
20260904124525 73 284 8.0 18.0 0.00 0.00 0.00 59 1011.7
20260904124023 73 273 9.0 19.0 0.00 0.00 0.00 60 1011.8
20260904123521 72 275 8.0 19.0 0.00 0.00 0.00 60 1012.1
20260904123019 72 268 7.0 18.0 0.00 0.00 0.00 61 1012.2
20260904122517 72 289 5.0 11.0 0.00 0.00 0.00 61 1012.4
20260904122035 72 267 5.0 10.0 0.00 0.00 0.00 60 1012.5
20260904121534 72 256 7.0 16.0 0.00 0.00 0.00 60 1012.4
20260904121031 72 262 9.0 22.0 0.00 0.00 0.00 60 1012.4
20260904120530 72 282 8.0 19.0 0.00 0.00 0.00 60 1012.5
20260904120028 72 291 9.0 15.0 0.00 0.00 0.00 60 1012.5
20260904115526 72 278 9.0 18.0 0.00 0.00 0.00 61 1012.5
20260904115024 71 289 7.0 18.0 0.00 0.00 0.00 62 1012.5
20260904114522 71 279 7.0 17.0 0.00 0.00 0.00 63 1012.6
20260904114020 71 258 7.0 16.0 0.00 0.00 0.00 62 1012.7
20260904113518 71 273 6.0 15.0 0.00 0.00 0.00 63 1012.7
20260904113049 71 284 7.0 17.0 0.00 0.00 0.00 63 1012.9
20260904113016 71 284 7.0 17.0 0.00 0.00 0.00 63 1012.9
20260904112534 70 247 8.0 16.0 0.00 0.00 0.00 63 1013.1
20260904112032 70 279 8.0 19.0 0.00 0.00 0.00 63 1013.2
20260904111531 70 278 8.0 16.0 0.00 0.00 0.00 63 1013.2
20260904111029 70 274 6.0 14.0 0.00 0.00 0.00 64 1013.3
20260904110527 70 277 7.0 21.0 0.00 0.00 0.00 63 1013.3
20260904110025 70 262 8.0 18.0 0.00 0.00 0.00 64 1013.3
20260904105523 70 282 8.0 19.0 0.00 0.00 0.00 64 1013.4
20260904105022 70 286 8.0 24.0 0.00 0.00 0.00 65 1013.5
20260904104519 70 268 10.0 18.0 0.00 0.00 0.00 66 1013.6
20260904104018 70 262 5.0 14.0 0.00 0.00 0.00 66 1013.5
20260904103516 70 281 6.0 14.0 0.00 0.00 0.00 66 1013.5
20260904103034 70 281 7.0 21.0 0.00 0.00 0.00 66 1013.5
20260904102532 70 276 7.0 14.0 0.00 0.00 0.00 66 1013.7
20260904102030 70 252 8.0 18.0 0.00 0.00 0.00 66 1013.7
20260904101528 70 280 7.0 16.0 0.00 0.00 0.00 67 1013.7
20260904101026 69 267 7.0 14.0 0.00 0.00 0.00 67 1013.7
20260904100525 69 283 6.0 15.0 0.00 0.00 0.00 68 1013.7
20260904100023 69 271 5.0 14.0 0.00 0.00 0.00 68 1013.7
20260904095521 69 280 6.0 15.0 0.00 0.00 0.00 68 1013.7
20260904095019 69 278 9.0 21.0 0.00 0.00 0.00 68 1013.8
20260904094517 69 271 8.0 19.0 0.00 0.00 0.00 68 1013.8
20260904094047 69 278 8.0 21.0 0.00 0.00 0.00 68 1014.0
20260904094015 69 278 8.0 21.0 0.00 0.00 0.00 68 1014.0
20260904093534 69 270 8.0 14.0 0.00 0.00 0.00 69 1013.9
20260904093032 69 279 7.0 18.0 0.00 0.00 0.00 69 1014.0
20260904092530 69 280 7.0 18.0 0.00 0.00 0.00 70 1013.9
20260904092028 68 286 5.0 13.0 0.00 0.00 0.00 71 1013.9
20260904091526 68 278 5.0 13.0 0.00 0.00 0.00 72 1014.0
20260904091024 67 284 4.0 13.0 0.00 0.00 0.00 71 1014.0
20260904090523 67 289 7.0 14.0 0.00 0.00 0.00 71 1014.1
20260904090021 67 272 6.0 13.0 0.00 0.00 0.00 71 1014.1
20260904085520 67 272 6.0 15.0 0.00 0.00 0.00 72 1014.2
20260904085048 67 265 5.0 15.0 0.00 0.00 0.00 72 1014.2
20260904085017 67 265 5.0 15.0 0.00 0.00 0.00 72 1014.2
20260904084535 67 277 4.0 13.0 0.00 0.00 0.00 73 1014.3
20260904084033 67 298 3.0 7.0 0.00 0.00 0.00 73 1014.2
20260904083531 67 277 4.0 10.0 0.00 0.00 0.00 73 1014.2
20260904083030 67 267 4.0 9.0 0.00 0.00 0.00 73 1014.1
20260904082528 67 274 7.0 11.0 0.00 0.00 0.00 73 1014.2
20260904082026 67 290 5.0 9.0 0.00 0.00 0.00 74 1014.5
20260904081524 66 271 6.0 11.0 0.00 0.00 0.00 74 1014.5
20260904081022 66 268 5.0 10.0 0.00 0.00 0.00 74 1014.4
20260904080520 66 269 6.0 13.0 0.00 0.00 0.00 73 1014.4
20260904080019 66 270 6.0 14.0 0.00 0.00 0.00 73 1014.2
20260904075517 66 268 6.0 16.0 0.00 0.00 0.00 73 1014.2
20260904075035 66 277 8.0 16.0 0.00 0.00 0.00 74 1014.1
20260904074533 66 275 6.0 13.0 0.00 0.00 0.00 75 1014.1
20260904074031 66 278 6.0 14.0 0.00 0.00 0.00 75 1014.2
20260904073529 65 270 7.0 22.0 0.00 0.00 0.00 75 1014.2
20260904073028 65 267 6.0 13.0 0.00 0.00 0.00 75 1014.2
20260904072526 65 270 7.0 14.0 0.00 0.00 0.00 75 1014.0
20260904072024 65 274 6.0 14.0 0.00 0.00 0.00 76 1014.0
20260904071522 65 267 5.0 13.0 0.00 0.00 0.00 76 1014.1
20260904071020 64 282 6.0 15.0 0.00 0.00 0.00 77 1014.2
20260904070518 64 292 5.0 13.0 0.00 0.00 0.00 77 1014.2
20260904070016 64 280 6.0 10.0 0.00 0.00 0.00 77 1014.3
20260904065535 64 275 6.0 13.0 0.00 0.00 0.00 77 1014.4
20260904065033 64 286 5.0 11.0 0.00 0.00 0.00 77 1014.4
20260904064531 64 287 5.0 14.0 0.00 0.00 0.00 77 1014.4
20260904064029 64 278 6.0 16.0 0.00 0.00 0.00 77 1014.4
20260904063527 64 269 5.0 11.0 0.00 0.00 0.00 76 1014.5
20260904063025 64 295 4.0 10.0 0.00 0.00 0.00 76 1014.5
20260904062523 64 283 5.0 13.0 0.00 0.00 0.00 76 1014.5
20260904062021 64 271 4.0 8.0 0.00 0.00 0.00 76 1014.5
20260904061520 64 279 5.0 11.0 0.00 0.00 0.00 76 1014.3
20260904061049 64 276 5.0 10.0 0.00 0.00 0.00 76 1014.4
20260904061017 64 276 5.0 10.0 0.00 0.00 0.00 76 1014.4
20260904060535 64 286 4.0 8.0 0.00 0.00 0.00 76 1014.4
20260904060034 64 274 5.0 14.0 0.00 0.00 0.00 76 1014.2
20260904055531 64 261 6.0 13.0 0.00 0.00 0.00 76 1014.2
20260904055029 64 292 7.0 15.0 0.00 0.00 0.00 76 1014.2
20260904054527 63 276 5.0 13.0 0.00 0.00 0.00 76 1014.3
20260904054024 63 282 5.0 8.0 0.00 0.00 0.00 75 1014.2
20260904053523 63 268 4.0 11.0 0.00 0.00 0.00 75 1014.1
20260904053021 63 264 4.0 9.0 0.00 0.00 0.00 75 1014.1
20260904052519 63 262 5.0 14.0 0.00 0.00 0.00 75 1014.2
20260904052017 63 275 4.0 14.0 0.00 0.00 0.00 75 1014.1
20260904051535 63 271 3.0 9.0 0.00 0.00 0.00 74 1014.2
20260904051033 63 269 5.0 9.0 0.00 0.00 0.00 75 1014.1
20260904050532 63 280 3.0 7.0 0.00 0.00 0.00 74 1014.2
20260904050030 63 280 4.0 9.0 0.00 0.00 0.00 75 1014.3
20260904045527 63 276 3.0 10.0 0.00 0.00 0.00 74 1014.2
20260904045026 63 292 4.0 9.0 0.00 0.00 0.00 74 1014.2
20260904044524 63 275 4.0 11.0 0.00 0.00 0.00 74 1014.4
20260904044022 63 280 4.0 10.0 0.00 0.00 0.00 74 1014.5
20260904043520 63 271 4.0 13.0 0.00 0.00 0.00 74 1014.5
20260904043018 63 291 3.0 9.0 0.00 0.00 0.00 73 1014.4
20260904042516 63 271 3.0 9.0 0.00 0.00 0.00 73 1014.4
20260904042034 63 248 3.0 8.0 0.00 0.00 0.00 73 1014.3
20260904041533 62 252 4.0 10.0 0.00 0.00 0.00 73 1014.4
20260904041031 62 259 3.0 6.0 0.00 0.00 0.00 73 1014.4
20260904040529 62 254 3.0 9.0 0.00 0.00 0.00 73 1014.4
20260904040027 62 265 2.0 7.0 0.00 0.00 0.00 73 1014.4
20260904035525 62 268 2.0 6.0 0.00 0.00 0.00 73 1014.4
20260904035023 62 260 2.0 6.0 0.00 0.00 0.00 73 1014.5
20260904034521 62 269 2.0 7.0 0.00 0.00 0.00 72 1014.5
20260904034019 62 248 3.0 6.0 0.00 0.00 0.00 72 1014.6
20260904033517 62 254 2.0 4.0 0.00 0.00 0.00 72 1014.5
20260904033036 62 249 3.0 7.0 0.00 0.00 0.00 72 1014.5
20260904032534 62 246 2.0 6.0 0.00 0.00 0.00 72 1014.5
20260904032032 62 269 2.0 4.0 0.00 0.00 0.00 72 1014.5
20260904031530 62 258 3.0 9.0 0.00 0.00 0.00 72 1014.7
20260904031028 62 263 4.0 7.0 0.00 0.00 0.00 72 1014.9
20260904030526 62 255 3.0 4.0 0.00 0.00 0.00 72 1014.7
20260904030025 62 265 2.0 7.0 0.00 0.00 0.00 72 1014.7
20260904025522 62 269 2.0 4.0 0.00 0.00 0.00 71 1014.6
20260904025020 62 249 2.0 4.0 0.00 0.00 0.00 71 1014.5
20260904024519 62 256 2.0 7.0 0.00 0.00 0.00 71 1014.6
20260904024048 62 258 2.0 6.0 0.00 0.00 0.00 71 1014.7
20260904024016 62 258 2.0 6.0 0.00 0.00 0.00 71 1014.7
20260904023535 62 247 2.0 6.0 0.00 0.00 0.00 70 1014.6
20260904023033 62 246 2.0 4.0 0.00 0.00 0.00 70 1014.7
20260904022531 62 240 2.0 4.0 0.00 0.00 0.00 70 1014.7
20260904022029 62 251 2.0 4.0 0.00 0.00 0.00 70 1014.6
20260904021527 62 260 2.0 6.0 0.00 0.00 0.00 70 1014.7
20260904021025 62 271 2.0 8.0 0.00 0.00 0.00 70 1014.7
20260904020524 62 256 2.0 6.0 0.00 0.00 0.00 70 1014.7
20260904020022 62 263 3.0 7.0 0.00 0.00 0.00 70 1014.7
20260904015520 62 262 2.0 6.0 0.00 0.00 0.00 70 1014.7
20260904015018 62 262 3.0 7.0 0.00 0.00 0.00 70 1014.8
20260904014516 62 251 3.0 7.0 0.00 0.00 0.00 70 1014.7
20260904014034 62 263 3.0 9.0 0.00 0.00 0.00 70 1014.7
20260904013532 62 256 3.0 8.0 0.00 0.00 0.00 70 1014.8
20260904013031 62 271 3.0 7.0 0.00 0.00 0.00 70 1014.8
20260904012528 62 244 2.0 7.0 0.00 0.00 0.00 70 1014.7
20260904012027 62 256 3.0 7.0 0.00 0.00 0.00 70 1014.8
20260904011525 62 246 2.0 4.0 0.00 0.00 0.00 69 1014.9
20260904011023 62 245 2.0 6.0 0.00 0.00 0.00 69 1014.9
20260904010521 62 213 1.0 6.0 0.00 0.00 0.00 69 1015.0
20260904010044 62 241 1.0 4.0 0.00 0.00 0.00 69 1015.0
20260904005525 62 241 1.0 4.0 0.00 0.00 0.00 69 1015.0
20260904005023 63 245 2.0 4.0 0.00 0.00 0.00 69 1015.0
20260904004521 63 220 1.0 4.0 0.00 0.00 0.00 69 1015.1
20260904004019 63 222 1.0 4.0 0.00 0.00 0.00 69 1015.2
20260904003517 63 202 1.0 3.0 0.00 0.00 0.00 69 1015.2
20260904003035 63 211 2.0 7.0 0.00 0.00 0.00 68 1015.3
20260904002533 63 202 1.0 3.0 0.00 0.00 0.00 68 1015.2
20260904002032 63 218 1.0 3.0 0.00 0.00 0.00 68 1015.4
20260904001530 63 236 2.0 6.0 0.00 0.00 0.00 68 1015.5
20260904001028 63 234 2.0 6.0 0.00 0.00 0.00 68 1015.5
20260904000526 63 232 2.0 3.0 0.00 0.00 0.00 68 1015.4
20260904000024 63 205 2.0 4.0 0.00 0.00 0.00 68 1015.4
20260903235522 63 194 2.0 4.0 0.00 0.00 0.00 68 1015.4
20260903235021 63 234 2.0 6.0 0.00 0.00 0.00 68 1015.4
20260903234519 63 215 1.0 4.0 0.00 0.00 0.00 68 1015.5
20260903234048 63 203 2.0 3.0 0.00 0.00 0.00 68 1015.5
20260903234017 63 203 2.0 3.0 0.00 0.00 0.00 68 1015.5
20260903233535 63 207 2.0 4.0 0.00 0.00 0.00 68 1015.6
20260903233034 63 196 1.0 3.0 0.00 0.00 0.00 68 1015.8
20260903232532 63 208 1.0 2.0 0.00 0.00 0.00 68 1015.8
20260903232029 63 205 1.0 6.0 0.00 0.00 0.00 68 1015.9
20260903231528 63 194 1.0 2.0 0.00 0.00 0.00 68 1015.9
20260903231025 63 196 1.0 3.0 0.00 0.00 0.00 68 1015.9
20260903230523 63 202 1.0 4.0 0.00 0.00 0.00 68 1015.9
20260903230022 63 196 1.0 3.0 0.00 0.00 0.00 68 1015.9
20260903225520 63 187 1.0 3.0 0.00 0.00 0.00 68 1016.1
20260903225018 63 182 0.0 2.0 0.00 0.00 0.00 68 1016.1
20260903224516 63 216 0.0 1.0 0.00 0.00 0.00 68 1016.2
20260903224034 63 179 0.0 2.0 0.00 0.00 0.00 68 1016.2
20260903223532 63 188 0.0 2.0 0.00 0.00 0.00 67 1016.2
20260903223030 63 0.0 0.0 0.00 0.00 0.00 67 1016.2
20260903222529 63 0.0 0.0 0.00 0.00 0.00 67 1016.2
20260903222027 63 0.0 0.0 0.00 0.00 0.00 67 1016.2
20260903221525 63 0.0 0.0 0.00 0.00 0.00 67 1016.2
20260903221023 64 0.0 0.0 0.00 0.00 0.00 66 1016.1
20260903220521 64 0.0 0.0 0.00 0.00 0.00 66 1016.2
20260903220022 64 0.0 0.0 0.00 0.00 0.00 66 1016.3
20260903215517 64 0.0 0.0 0.00 0.00 0.00 66 1016.4
20260903215049 64 247 0.0 3.0 0.00 0.00 0.00 65 1016.4
20260903215015 64 247 0.0 3.0 0.00 0.00 0.00 65 1016.4
20260903214534 64 251 1.0 3.0 0.00 0.00 0.00 65 1016.4
20260903214032 64 241 1.0 2.0 0.00 0.00 0.00 65 1016.5
20260903213530 64 267 0.0 3.0 0.00 0.00 0.00 65 1016.5
20260903213028 64 0.0 0.0 0.00 0.00 0.00 65 1016.5
20260903212526 64 237 0.0 2.0 0.00 0.00 0.00 65 1016.5
20260903212025 65 246 0.0 2.0 0.00 0.00 0.00 65 1016.6
20260903211523 65 0.0 0.0 0.00 0.00 0.00 65 1016.5
20260903211021 65 226 0.0 2.0 0.00 0.00 0.00 65 1016.5
20260903210519 65 238 1.0 3.0 0.00 0.00 0.00 65 1016.7
20260903210017 65 262 1.0 3.0 0.00 0.00 0.00 65 1016.7
20260903205516 65 0.0 0.0 0.00 0.00 0.00 65 1016.6
20260903205034 65 260 1.0 2.0 0.00 0.00 0.00 65 1016.7
20260903204532 65 280 1.0 3.0 0.00 0.00 0.00 65 1016.7
20260903204030 65 249 1.0 2.0 0.00 0.00 0.00 65 1016.6
20260903203528 65 268 2.0 4.0 0.00 0.00 0.00 65 1016.6
20260903203026 65 267 1.0 4.0 0.00 0.00 0.00 65 1016.7
20260903202525 65 274 1.0 4.0 0.00 0.00 0.00 65 1016.7
20260903202022 65 285 2.0 4.0 0.00 0.00 0.00 65 1016.7
20260903201521 65 277 2.0 4.0 0.00 0.00 0.00 65 1016.6
20260903201019 65 276 2.0 7.0 0.00 0.00 0.00 64 1016.6
20260903200517 65 274 2.0 7.0 0.00 0.00 0.00 64 1016.7
20260903200035 65 272 2.0 4.0 0.00 0.00 0.00 64 1016.6
20260903195533 65 258 2.0 6.0 0.00 0.00 0.00 64 1016.7
20260903195032 65 257 3.0 4.0 0.00 0.00 0.00 64 1016.7
20260903194530 65 252 2.0 8.0 0.00 0.00 0.00 64 1016.7
20260903194028 65 244 2.0 3.0 0.00 0.00 0.00 64 1016.7
20260903193526 65 248 2.0 3.0 0.00 0.00 0.00 64 1016.8
20260903193024 65 243 2.0 4.0 0.00 0.00 0.00 64 1016.8
20260903192522 65 247 1.0 3.0 0.00 0.00 0.00 64 1016.8
20260903192020 65 249 2.0 4.0 0.00 0.00 0.00 64 1016.8
20260903191518 66 256 2.0 4.0 0.00 0.00 0.00 65 1016.9
20260903191049 66 245 1.0 4.0 0.00 0.00 0.00 64 1017.0
20260903191016 66 245 1.0 4.0 0.00 0.00 0.00 64 1017.0
20260903190534 66 238 1.0 3.0 0.00 0.00 0.00 64 1017.0
20260903190033 66 249 0.0 2.0 0.00 0.00 0.00 64 1017.0
20260903185531 66 0.0 0.0 0.00 0.00 0.00 64 1017.0
20260903185029 66 0.0 0.0 0.00 0.00 0.00 63 1016.9
20260903184527 66 246 0.0 2.0 0.00 0.00 0.00 63 1017.0
20260903184025 67 0.0 0.0 0.00 0.00 0.00 63 1016.9
20260903183523 67 0.0 0.0 0.00 0.00 0.00 62 1017.0
20260903183021 67 0.0 0.0 0.00 0.00 0.00 62 1017.0
20260903182519 67 0.0 0.0 0.00 0.00 0.00 62 1017.0
20260903182018 67 0.0 0.0 0.00 0.00 0.00 61 1017.0
20260903181515 68 0.0 0.0 0.00 0.00 0.00 61 1017.0
20260903181034 68 0.0 0.0 0.00 0.00 0.00 61 1017.0
20260903180532 68 0.0 0.0 0.00 0.00 0.00 60 1017.0
20260903180030 68 0.0 0.0 0.00 0.00 0.00 60 1016.9
20260903175528 68 0.0 0.0 0.00 0.00 0.00 60 1016.9
20260903175026 69 0.0 0.0 0.00 0.00 0.00 60 1016.9
20260903174525 69 0.0 0.0 0.00 0.00 0.00 59 1016.9